Time,TemperatureF,DewpointF,PressureIn,WindDirection,WindDirectionDegrees,WindSpeedMPH,WindSpeedGustMPH,Humidity,HourlyPrecipIn,Conditions,Clouds,dailyrainin,SolarRadiationWatts/m^2,SoftwareType,DateUTC
2013-03-04 00:01:00,40.0,28.0,-100.00,South,175,3.0,6.0,62,0.00,,,0.00,0.000000,,2013-03-04 06:01:00,
2013-03-04 00:32:00,41.0,29.0,-100.00,South,180,4.0,6.0,63,0.00,,,0.00,0.000000,,2013-03-04 06:32:00,
2013-03-04 00:42:00,41.0,29.0,-100.00,South,180,4.0,6.0,63,0.00,,,0.00,0.000000,,2013-03-04 06:42:00,
2013-03-04 00:52:00,41.0,29.0,-100.00,South,180,4.0,6.0,63,0.00,,,0.00,0.000000,,2013-03-04 06:52:00,
2013-03-04 01:01:00,41.0,29.0,-100.00,South,180,4.0,6.0,63,0.00,,,0.00,0.000000,,2013-03-04 07:01:00,
2013-03-04 01:32:00,40.0,31.0,-100.00,South,169,3.0,6.0,69,0.00,,,0.00,0.000000,,2013-03-04 07:32:00,
2013-03-04 01:42:00,40.0,31.0,-100.00,South,169,3.0,6.0,69,0.00,,,0.00,0.000000,,2013-03-04 07:42:00,
2013-03-04 01:52:00,40.0,31.0,-100.00,South,169,3.0,6.0,69,0.00,,,0.00,0.000000,,2013-03-04 07:52:00,
2013-03-04 02:02:00,40.0,31.0,-100.00,South,169,3.0,6.0,69,0.00,,,0.00,0.000000,,2013-03-04 08:02:00,
2013-03-04 02:32:00,38.0,31.0,-100.00,South,179,2.0,6.0,75,0.00,,,0.00,0.000000,,2013-03-04 08:32:00,
2013-03-04 02:42:00,38.0,31.0,-100.00,South,179,2.0,6.0,75,0.00,,,0.00,0.000000,,2013-03-04 08:42:00,
2013-03-04 02:52:00,38.0,31.0,-100.00,South,179,2.0,6.0,75,0.00,,,0.00,0.000000,,2013-03-04 08:52:00,
2013-03-04 03:01:00,38.0,31.0,-100.00,South,179,2.0,6.0,75,0.00,,,0.00,0.000000,,2013-03-04 09:01:00,
2013-03-04 03:32:00,35.0,31.0,-100.00,SSE,157,2.0,4.0,86,0.00,,,0.00,0.000000,,2013-03-04 09:32:00,
2013-03-04 03:42:00,35.0,31.0,-100.00,SSE,157,2.0,4.0,86,0.00,,,0.00,0.000000,,2013-03-04 09:42:00,
2013-03-04 03:52:00,35.0,31.0,-100.00,SSE,157,2.0,4.0,86,0.00,,,0.00,0.000000,,2013-03-04 09:52:00,
2013-03-04 04:01:00,35.0,31.0,-100.00,SSE,157,2.0,4.0,86,0.00,,,0.00,0.000000,,2013-03-04 10:01:00,
2013-03-04 04:32:00,37.0,34.0,-100.00,SE,141,4.0,6.0,87,0.00,,,0.00,0.000000,,2013-03-04 10:32:00,
2013-03-04 04:42:00,37.0,34.0,-100.00,SE,141,4.0,6.0,87,0.00,,,0.00,0.000000,,2013-03-04 10:42:00,
2013-03-04 04:52:00,37.0,34.0,-100.00,SE,141,4.0,6.0,87,0.00,,,0.00,0.000000,,2013-03-04 10:52:00,
2013-03-04 05:02:00,37.0,34.0,-100.00,SE,141,4.0,6.0,87,0.00,,,0.00,0.000000,,2013-03-04 11:02:00,
2013-03-04 05:32:00,36.0,34.0,-100.00,SE,139,0.0,4.0,91,0.00,,,0.00,0.000000,,2013-03-04 11:32:00,
2013-03-04 05:42:00,36.0,34.0,-100.00,SE,139,0.0,4.0,91,0.00,,,0.00,0.000000,,2013-03-04 11:42:00,
2013-03-04 05:52:00,36.0,34.0,-100.00,SE,139,0.0,4.0,91,0.00,,,0.00,0.000000,,2013-03-04 11:52:00,
2013-03-04 06:01:00,36.0,34.0,-100.00,SE,139,0.0,4.0,91,0.00,,,0.00,0.000000,,2013-03-04 12:01:00,
2013-03-04 06:32:00,35.0,34.0,-100.00,SE,136,0.0,0.0,97,0.00,,,0.00,0.000000,,2013-03-04 12:32:00,
2013-03-04 06:42:00,35.0,34.0,-100.00,SE,136,0.0,0.0,97,0.00,,,0.00,0.000000,,2013-03-04 12:42:00,
2013-03-04 06:53:00,35.0,34.0,-100.00,SE,136,0.0,0.0,97,0.00,,,0.00,0.000000,,2013-03-04 12:53:00,
2013-03-04 07:02:00,35.0,34.0,-100.00,SE,136,0.0,0.0,97,0.00,,,0.00,0.000000,,2013-03-04 13:02:00,
2013-03-04 07:32:00,39.0,37.0,-100.00,SE,138,5.0,6.0,93,0.00,,,0.00,38.000000,,2013-03-04 13:32:00,
2013-03-04 07:42:00,39.0,37.0,-100.00,SE,138,5.0,6.0,93,0.00,,,0.00,38.000000,,2013-03-04 13:42:00,
2013-03-04 07:52:00,39.0,37.0,-100.00,SE,138,5.0,6.0,93,0.00,,,0.00,38.000000,,2013-03-04 13:52:00,
2013-03-04 08:01:00,39.0,37.0,-100.00,SE,138,5.0,6.0,93,0.00,,,0.00,38.000000,,2013-03-04 14:01:00,
2013-03-04 08:32:00,48.0,41.0,-100.00,SSE,155,9.0,13.0,76,0.00,,,0.00,222.000000,,2013-03-04 14:32:00,
2013-03-04 08:42:00,48.0,41.0,-100.00,SSE,155,9.0,13.0,76,0.00,,,0.00,222.000000,,2013-03-04 14:42:00,
2013-03-04 08:52:00,48.0,41.0,-100.00,SSE,155,9.0,13.0,76,0.00,,,0.00,222.000000,,2013-03-04 14:52:00,
2013-03-04 09:01:00,48.0,41.0,-100.00,SSE,155,9.0,13.0,76,0.00,,,0.00,222.000000,,2013-03-04 15:01:00,
2013-03-04 09:32:00,56.0,45.0,-100.00,SSE,166,12.0,20.0,66,0.00,,,0.00,416.000000,,2013-03-04 15:32:00,
2013-03-04 09:42:00,56.0,45.0,-100.00,SSE,166,12.0,20.0,66,0.00,,,0.00,416.000000,,2013-03-04 15:42:00,
2013-03-04 09:52:00,56.0,45.0,-100.00,SSE,166,12.0,20.0,66,0.00,,,0.00,416.000000,,2013-03-04 15:52:00,
2013-03-04 10:02:00,56.0,45.0,-100.00,SSE,166,12.0,20.0,66,0.00,,,0.00,416.000000,,2013-03-04 16:02:00,
2013-03-04 10:32:00,62.0,46.0,-100.00,SSE,162,14.0,29.0,55,0.00,,,0.00,588.000000,,2013-03-04 16:32:00,
2013-03-04 10:42:00,62.0,46.0,-100.00,SSE,162,14.0,29.0,55,0.00,,,0.00,588.000000,,2013-03-04 16:42:00,
2013-03-04 10:52:00,62.0,46.0,-100.00,SSE,162,14.0,29.0,55,0.00,,,0.00,588.000000,,2013-03-04 16:52:00,
2013-03-04 11:02:00,62.0,46.0,-100.00,SSE,162,14.0,29.0,55,0.00,,,0.00,588.000000,,2013-03-04 17:02:00,
2013-03-04 11:32:00,65.0,44.0,-100.00,SSE,160,15.0,26.0,47,0.00,,,0.00,707.000000,,2013-03-04 17:32:00,
2013-03-04 11:42:00,65.0,44.0,-100.00,SSE,160,15.0,26.0,47,0.00,,,0.00,707.000000,,2013-03-04 17:42:00,
2013-03-04 11:52:00,65.0,44.0,-100.00,SSE,160,15.0,26.0,47,0.00,,,0.00,707.000000,,2013-03-04 17:52:00,
2013-03-04 12:01:00,65.0,44.0,-100.00,SSE,160,15.0,26.0,47,0.00,,,0.00,707.000000,,2013-03-04 18:01:00,
2013-03-04 12:32:00,67.0,46.0,-100.00,SSE,163,13.0,25.0,47,0.00,,,0.00,812.000000,,2013-03-04 18:32:00,
2013-03-04 12:42:00,67.0,46.0,-100.00,SSE,163,13.0,25.0,47,0.00,,,0.00,812.000000,,2013-03-04 18:42:00,
2013-03-04 12:52:00,67.0,46.0,-100.00,SSE,163,13.0,25.0,47,0.00,,,0.00,812.000000,,2013-03-04 18:52:00,
2013-03-04 13:02:00,67.0,46.0,-100.00,SSE,163,13.0,25.0,47,0.00,,,0.00,812.000000,,2013-03-04 19:02:00,
2013-03-04 13:32:00,68.0,48.0,-100.00,SSE,167,13.0,23.0,48,0.00,,,0.00,524.000000,,2013-03-04 19:32:00,
2013-03-04 13:42:00,68.0,48.0,-100.00,SSE,167,13.0,23.0,48,0.00,,,0.00,524.000000,,2013-03-04 19:42:00,
2013-03-04 13:52:00,68.0,48.0,-100.00,SSE,167,13.0,23.0,48,0.00,,,0.00,524.000000,,2013-03-04 19:52:00,
2013-03-04 14:02:00,68.0,48.0,-100.00,SSE,167,13.0,23.0,48,0.00,,,0.00,524.000000,,2013-03-04 20:02:00,
2013-03-04 14:32:00,69.0,48.0,-100.00,South,171,12.0,22.0,47,0.00,,,0.00,585.000000,,2013-03-04 20:32:00,
2013-03-04 14:42:00,69.0,48.0,-100.00,South,171,12.0,22.0,47,0.00,,,0.00,585.000000,,2013-03-04 20:42:00,
2013-03-04 14:52:00,69.0,48.0,-100.00,South,171,12.0,22.0,47,0.00,,,0.00,585.000000,,2013-03-04 20:52:00,
2013-03-04 15:02:00,69.0,48.0,-100.00,South,171,12.0,22.0,47,0.00,,,0.00,585.000000,,2013-03-04 21:02:00,
2013-03-04 15:32:00,70.0,47.0,-100.00,South,190,11.0,28.0,44,0.00,,,0.00,434.000000,,2013-03-04 21:32:00,
2013-03-04 15:43:00,70.0,47.0,-100.00,South,190,11.0,28.0,44,0.00,,,0.00,434.000000,,2013-03-04 21:43:00,
2013-03-04 15:53:00,70.0,47.0,-100.00,South,190,11.0,28.0,44,0.00,,,0.00,434.000000,,2013-03-04 21:53:00,
2013-03-04 16:02:00,70.0,47.0,-100.00,South,190,11.0,28.0,44,0.00,,,0.00,434.000000,,2013-03-04 22:02:00,
2013-03-04 16:32:00,69.0,48.0,-100.00,South,177,11.0,23.0,47,0.00,,,0.00,290.000000,,2013-03-04 22:32:00,
2013-03-04 16:43:00,69.0,48.0,-100.00,South,177,11.0,23.0,47,0.00,,,0.00,290.000000,,2013-03-04 22:43:00,
2013-03-04 16:52:00,69.0,48.0,-100.00,South,177,11.0,23.0,47,0.00,,,0.00,290.000000,,2013-03-04 22:52:00,
2013-03-04 17:02:00,69.0,48.0,-100.00,South,177,11.0,23.0,47,0.00,,,0.00,290.000000,,2013-03-04 23:02:00,
2013-03-04 17:32:00,67.0,48.0,-100.00,South,174,10.0,24.0,51,0.00,,,0.00,230.000000,,2013-03-04 23:32:00,
2013-03-04 17:42:00,67.0,48.0,-100.00,South,174,10.0,24.0,51,0.00,,,0.00,230.000000,,2013-03-04 23:42:00,
2013-03-04 17:52:00,67.0,48.0,-100.00,South,174,10.0,24.0,51,0.00,,,0.00,230.000000,,2013-03-04 23:52:00,
2013-03-04 18:02:00,67.0,48.0,-100.00,South,174,10.0,24.0,51,0.00,,,0.00,230.000000,,2013-03-05 00:02:00,
2013-03-04 18:32:00,65.0,49.0,-100.00,South,188,9.0,18.0,56,0.00,,,0.00,22.000000,,2013-03-05 00:32:00,
2013-03-04 18:42:00,65.0,49.0,-100.00,South,188,9.0,18.0,56,0.00,,,0.00,22.000000,,2013-03-05 00:42:00,
2013-03-04 18:52:00,65.0,49.0,-100.00,South,188,9.0,18.0,56,0.00,,,0.00,22.000000,,2013-03-05 00:52:00,
2013-03-04 19:01:00,65.0,49.0,-100.00,South,188,9.0,18.0,56,0.00,,,0.00,22.000000,,2013-03-05 01:01:00,
2013-03-04 20:32:00,62.0,52.0,-100.00,SSE,162,9.0,14.0,69,-99.99,,,0.00,0.000000,,2013-03-05 02:32:00,
2013-03-04 20:42:00,62.0,52.0,-100.00,SSE,162,9.0,14.0,69,-99.99,,,0.00,0.000000,,2013-03-05 02:42:00,
2013-03-04 20:52:00,62.0,52.0,-100.00,SSE,162,9.0,14.0,69,-99.99,,,0.00,0.000000,,2013-03-05 02:52:00,
2013-03-04 21:02:00,62.0,52.0,-100.00,SSE,162,9.0,14.0,69,-99.99,,,0.00,0.000000,,2013-03-05 03:02:00,
2013-03-04 21:32:00,61.0,53.0,-100.00,SSE,166,9.0,15.0,75,0.00,,,0.00,0.000000,,2013-03-05 03:32:00,
2013-03-04 21:42:00,61.0,53.0,-100.00,SSE,166,9.0,15.0,75,0.00,,,0.00,0.000000,,2013-03-05 03:42:00,
2013-03-04 21:52:00,61.0,53.0,-100.00,SSE,166,9.0,15.0,75,0.00,,,0.00,0.000000,,2013-03-05 03:52:00,
2013-03-04 22:01:00,61.0,53.0,-100.00,SSE,166,9.0,15.0,75,0.00,,,0.00,0.000000,,2013-03-05 04:01:00,
2013-03-04 22:32:00,60.0,55.0,-100.00,SSE,166,9.0,15.0,84,0.00,,,0.00,0.000000,,2013-03-05 04:32:00,
2013-03-04 22:42:00,60.0,55.0,-100.00,SSE,166,9.0,15.0,84,0.00,,,0.00,0.000000,,2013-03-05 04:42:00,
2013-03-04 22:52:00,60.0,55.0,-100.00,SSE,166,9.0,15.0,84,0.00,,,0.00,0.000000,,2013-03-05 04:52:00,
2013-03-04 23:02:00,60.0,55.0,-100.00,SSE,166,9.0,15.0,84,0.00,,,0.00,0.000000,,2013-03-05 05:02:00,
2013-03-04 23:32:00,59.0,56.0,-100.00,South,169,6.0,14.0,89,0.00,,,0.00,0.000000,,2013-03-05 05:32:00,
2013-03-04 23:42:00,59.0,56.0,-100.00,South,169,6.0,14.0,89,0.00,,,0.00,0.000000,,2013-03-05 05:42:00,
2013-03-04 23:52:00,59.0,56.0,-100.00,South,169,6.0,14.0,89,0.00,,,0.00,0.000000,,2013-03-05 05:52:00,